| time (UTC) | temp C | wind direction | speed KPH | gust KPH | rain 1hr cm | rain 24hr cm | rain mn cm | humidity % | barometer mb |
| 20260506203004 | 2 | 181 | 0.0 | 3.2 | 0.00 | 0.00 | 15.60 | 10 | 998.6 |
| 20260506202003 | 3 | 102 | 0.0 | 3.2 | 0.00 | 0.00 | 15.60 | 10 | 998.7 |
| 20260506201002 | 3 | 181 | 0.0 | 3.2 | 0.00 | 0.00 | 15.60 | 10 | 998.7 |
| 20260506195003 | 3 | 181 | 1.6 | 3.2 | 0.00 | 0.00 | 15.60 | 10 | 998.6 |
| 20260506194003 | 3 | 254 | 0.0 | 3.2 | 0.00 | 0.00 | 15.60 | 10 | 998.6 |
| 20260506193003 | 4 | 253 | 0.0 | 4.8 | 0.00 | 0.00 | 15.60 | 10 | 998.6 |
| 20260506192003 | 4 | 254 | 3.2 | 6.4 | 0.00 | 0.00 | 15.60 | 10 | 998.7 |
| 20260506191003 | 4 | 252 | 1.6 | 4.8 | 0.00 | 0.00 | 15.60 | 10 | 998.6 |
| 20260506190004 | 5 | 274 | 0.0 | 3.2 | 0.00 | 0.00 | 15.60 | 10 | 998.6 |
| 20260506184003 | 5 | 269 | 1.6 | 6.4 | 0.00 | 0.00 | 15.60 | 10 | 998.7 |
| 20260506183007 | 6 | 255 | 3.2 | 6.4 | 0.00 | 0.00 | 15.60 | 10 | 998.8 |
| 20260506182003 | 6 | 245 | 1.6 | 4.8 | 0.00 | 0.00 | 15.60 | 10 | 998.5 |
| 20260506175002 | 8 | 245 | 3.2 | 11.3 | 0.00 | 0.00 | 15.60 | 10 | 998.4 |
| 20260506173004 | 10 | 262 | 3.2 | 17.7 | 0.00 | 0.00 | 15.60 | 10 | 998.4 |
| 20260506172003 | 10 | 281 | 6.4 | 14.5 | 0.00 | 0.00 | 15.60 | 10 | 998.1 |
| 20260506171003 | 10 | 272 | 6.4 | 14.5 | 0.00 | 0.00 | 15.60 | 10 | 998.1 |
| 20260506170004 | 10 | 269 | 4.8 | 14.5 | 0.00 | 0.00 | 15.60 | 10 | 998.2 |
| 20260506165003 | 11 | 274 | 4.8 | 12.9 | 0.00 | 0.00 | 15.60 | 10 | 998.3 |
| 20260506164003 | 11 | 279 | 4.8 | 16.1 | 0.00 | 0.00 | 15.60 | 10 | 998.0 |
| 20260506163004 | 12 | 275 | 8.0 | 17.7 | 0.00 | 0.00 | 15.60 | 10 | 997.9 |
| 20260506162003 | 11 | 294 | 8.0 | 19.3 | 0.00 | 0.00 | 15.60 | 10 | 997.8 |
| 20260506155002 | 14 | 295 | 8.0 | 19.3 | 0.00 | 0.00 | 15.60 | 10 | 997.7 |
| 20260506154003 | 15 | 276 | 6.4 | 22.5 | 0.00 | 0.00 | 15.60 | 10 | 997.6 |
| 20260506153003 | 16 | 270 | 8.0 | 17.7 | 0.00 | 0.00 | 15.60 | 10 | 997.6 |
| 20260506152003 | 16 | 268 | 8.0 | 22.5 | 0.00 | 0.00 | 15.60 | 10 | 997.6 |
| 20260506151003 | 16 | 262 | 4.8 | 24.1 | 0.00 | 0.00 | 15.60 | 10 | 997.4 |
| 20260506150004 | 16 | 273 | 12.9 | 22.5 | 0.00 | 0.00 | 15.60 | 10 | 997.5 |